User: anonymous   Login
Location: Bangkok
(13.7500°N, 100.5170°E)
Time: 07:32:19
(UTC+07:00)
Language:

ERBS - Orbit

View from above orbital plane
View from above orbital plane
View from above satellite
View from above satellite

Ground track
Ground track

The orbit data is extracted from the following two-line orbital elements,

1 15354U 84108B   15057.62935668  .00008908  00000-0  28101-3 0  9992
2 15354 057.0119 139.8645 0011908 332.8225 027.2201 15.33606637668580
Epoch (UTC): 26 February 2015 15:06:16
Eccentricity: 0.0011908
inclination: 57.0119°
perigee height: 457 km
apogee height: 473 km
right ascension of ascending node: 139.8645°
argument of perigee: 332.8225°
revolutions per day: 15.33606637
mean anomaly at epoch: 27.2201°
orbit number at epoch: 66858

The dashed part of the orbit path shows where the satellite is in the earth's shadow,  

DLR